When you browse on this site, cookies collect data to enhance your experience and personalize the content and advertising you see.
Visit our Privacy Policy to learn more. By continuing to use the site, you agree to this use of cookies and data.
  • In Hungary
  • List of Countries
  • For 7 days
  • Water Temperature
  • Satellite Maps
  • Weather Map
  • News
  • Weather Widgets
  • user-avatar
    Login

    Hourly Weather Booué

    Today, 20 March, Wednesday

    Time Temperature Precipitation Wind Pressure Humidity
    00:00 +25°C° 1.6 mm 1 mps 733 mmHg 97%
    01:00 +25°C° 1.6 mm 1 mps 733 mmHg 97%
    02:00 +23°C° 0 mm 0 mps 733 mmHg 98%
    03:00 +23°C° 0 mm 0 mps 732 mmHg 98%
    04:00 +23°C° 0 mm 0 mps 732 mmHg 98%
    05:00 +23°C° 0 mm 0 mps 732 mmHg 98%
    06:00 +23°C° 0 mm 0 mps 733 mmHg 97%
    07:00 +23°C° 0 mm 0 mps 733 mmHg 97%
    08:00 +25°C° 0 mm 0 mps 733 mmHg 87%
    09:00 +28°C° 0 mm 0 mps 734 mmHg 78%
    10:00 +30°C° 0 mm 0 mps 734 mmHg 68%
    11:00 +31°C° 0 mm 0 mps 734 mmHg 64%
    12:00 +33°C° 0 mm 1 mps 733 mmHg 59%
    13:00 +34°C° 0 mm 1 mps 732 mmHg 55%
    14:00 +34°C° 0.3 mm 1 mps 732 mmHg 55%
    15:00 +34°C° 0.3 mm 1 mps 731 mmHg 55%
    16:00 +34°C° 0.3 mm 1 mps 731 mmHg 56%
    17:00 +32°C° 0.9 mm 1 mps 731 mmHg 67%
    18:00 +29°C° 0.9 mm 1 mps 731 mmHg 77%
    19:00 +27°C° 0.9 mm 2 mps 732 mmHg 88%
    20:00 +27°C° 0.1 mm 1 mps 733 mmHg 90%
    21:00 +27°C° 0.1 mm 1 mps 733 mmHg 91%
    22:00 +26°C° 0.1 mm 1 mps 734 mmHg 92%
    23:00 +26°C° 0 mm 1 mps 733 mmHg 93%

    Tomorrow, 21 March, Thursday

    Time Temperature Precipitation Wind Pressure Humidity
    00:00 +26°C° 0 mm 1 mps 733 mmHg 95%
    01:00 +25°C° 0 mm 1 mps 733 mmHg 96%
    02:00 +25°C° 0 mm 1 mps 732 mmHg 96%
    03:00 +25°C° 0 mm 1 mps 732 mmHg 97%
    04:00 +25°C° 0 mm 1 mps 732 mmHg 97%
    05:00 +25°C° 0 mm 1 mps 732 mmHg 96%
    06:00 +25°C° 0 mm 1 mps 733 mmHg 96%
    07:00 +25°C° 0 mm 1 mps 733 mmHg 95%
    08:00 +28°C° 0 mm 1 mps 733 mmHg 84%
    09:00 +30°C° 0 mm 1 mps 734 mmHg 72%
    10:00 +33°C° 0 mm 1 mps 734 mmHg 61%
    11:00 +34°C° 0 mm 1 mps 734 mmHg 55%
    12:00 +36°C° 0 mm 1 mps 733 mmHg 49%
    13:00 +37°C° 0 mm 1 mps 732 mmHg 43%
    14:00 +37°C° 0 mm 1 mps 731 mmHg 42%
    15:00 +37°C° 0 mm 1 mps 731 mmHg 42%
    16:00 +37°C° 0 mm 1 mps 730 mmHg 41%
    17:00 +35°C° 0 mm 1 mps 730 mmHg 50%
    18:00 +33°C° 0 mm 1 mps 731 mmHg 58%
    19:00 +30°C° 0 mm 1 mps 731 mmHg 67%
    20:00 +29°C° 0.7 mm 1 mps 732 mmHg 74%
    21:00 +28°C° 0.7 mm 1 mps 732 mmHg 81%
    22:00 +27°C° 0.7 mm 2 mps 733 mmHg 88%
    23:00 +27°C° 0.4 mm 1 mps 733 mmHg 90%

    Day after tomorrow, 22 March, Friday

    Time Temperature Precipitation Wind Pressure Humidity
    00:00 +26°C° 0.4 mm 1 mps 733 mmHg 92%
    01:00 +26°C° 0.4 mm 1 mps 733 mmHg 94%
    02:00 +26°C° 0 mm 1 mps 732 mmHg 95%
    03:00 +26°C° 0 mm 1 mps 732 mmHg 96%
    04:00 +25°C° 0 mm 1 mps 731 mmHg 97%
    05:00 +25°C° 0 mm 1 mps 732 mmHg 96%
    06:00 +26°C° 0 mm 1 mps 733 mmHg 96%
    07:00 +24°C° 0 mm 0 mps 733 mmHg 95%
    08:00 +27°C° 0 mm 1 mps 734 mmHg 87%
    09:00 +29°C° 0 mm 1 mps 735 mmHg 79%
    10:00 +31°C° 0 mm 1 mps 735 mmHg 71%
    11:00 +32°C° 0 mm 1 mps 734 mmHg 64%
    12:00 +34°C° 0 mm 1 mps 733 mmHg 57%
    13:00 +35°C° 0 mm 1 mps 732 mmHg 50%
    14:00 +35°C° 0.3 mm 1 mps 732 mmHg 51%
    15:00 +35°C° 0.3 mm 1 mps 732 mmHg 51%
    16:00 +35°C° 0.3 mm 1 mps 731 mmHg 52%
    17:00 +33°C° 0.8 mm 1 mps 732 mmHg 61%
    18:00 +31°C° 0.8 mm 1 mps 732 mmHg 70%
    19:00 +28°C° 0.8 mm 2 mps 732 mmHg 79%
    20:00 +28°C° 0.2 mm 2 mps 733 mmHg 83%
    21:00 +27°C° 0.2 mm 2 mps 733 mmHg 86%
    22:00 +26°C° 0.2 mm 2 mps 734 mmHg 90%
    23:00 +26°C° 0 mm 1 mps 733 mmHg 91%

    23 March, Saturday

    Time Temperature Precipitation Wind Pressure Humidity
    00:00 +26°C° 0 mm 1 mps 733 mmHg 92%
    01:00 +25°C° 0 mm 1 mps 733 mmHg 93%
    02:00 +25°C° 0 mm 1 mps 733 mmHg 95%
    03:00 +25°C° 0 mm 1 mps 733 mmHg 96%
    04:00 +23°C° 0 mm 0 mps 733 mmHg 97%
    05:00 +23°C° 0.1 mm 0 mps 733 mmHg 96%
    06:00 +23°C° 0.1 mm 0 mps 734 mmHg 95%
    07:00 +23°C° 0.1 mm 0 mps 735 mmHg 94%
    08:00 +25°C° 0.1 mm 0 mps 735 mmHg 88%
    09:00 +28°C° 0.1 mm 1 mps 735 mmHg 82%
    10:00 +29°C° 0.1 mm 1 mps 735 mmHg 75%
    11:00 +31°C° 0 mm 1 mps 735 mmHg 67%
    12:00 +33°C° 0 mm 1 mps 734 mmHg 58%
    13:00 +35°C° 0 mm 1 mps 733 mmHg 50%
    14:00 +32°C° 5.2 mm 1 mps 733 mmHg 66%
    15:00 +29°C° 5.2 mm 1 mps 732 mmHg 81%
    16:00 +26°C° 5.2 mm 1 mps 732 mmHg 97%
    17:00 +24°C° 0.1 mm 0 mps 732 mmHg 97%
    18:00 +24°C° 0.1 mm 0 mps 733 mmHg 97%
    19:00 +24°C° 0.1 mm 0 mps 733 mmHg 97%
    20:00 +23°C° 0 mm 0 mps 733 mmHg 97%
    21:00 +23°C° 0 mm 0 mps 734 mmHg 97%
    22:00 +23°C° 0 mm 0 mps 734 mmHg 97%
    23:00 +22°C° 0 mm 0 mps 733 mmHg 97%

    24 March, Sunday

    Time Temperature Precipitation Wind Pressure Humidity
    00:00 +22°C° 0 mm 0 mps 733 mmHg 97%
    01:00 +22°C° 0 mm 0 mps 733 mmHg 98%
    02:00 +22°C° 0 mm 0 mps 732 mmHg 98%
    03:00 +22°C° 0 mm 0 mps 732 mmHg 98%
    04:00 +22°C° 0 mm 0 mps 732 mmHg 98%
    05:00 +22°C° 0 mm 0 mps 733 mmHg 97%
    06:00 +22°C° 0 mm 0 mps 733 mmHg 97%
    07:00 +22°C° 0 mm 0 mps 734 mmHg 96%
    08:00 +25°C° 0 mm 0 mps 734 mmHg 86%
    09:00 +27°C° 0 mm 0 mps 735 mmHg 76%
    10:00 +31°C° 0 mm 1 mps 735 mmHg 66%
    11:00 +32°C° 0 mm 0 mps 734 mmHg 58%
    12:00 +34°C° 0 mm 0 mps 733 mmHg 49%
    13:00 +36°C° 0 mm 0 mps 732 mmHg 41%
    14:00 +36°C° 0 mm 0 mps 732 mmHg 40%
    15:00 +35°C° 0 mm 0 mps 731 mmHg 39%
    16:00 +35°C° 0 mm 0 mps 730 mmHg 39%
    17:00 +33°C° 0 mm 0 mps 731 mmHg 46%
    18:00 +30°C° 0 mm 0 mps 731 mmHg 54%
    19:00 +28°C° 0 mm 0 mps 731 mmHg 61%
    20:00 +29°C° 0 mm 1 mps 731 mmHg 66%
    21:00 +28°C° 0 mm 1 mps 732 mmHg 71%
    22:00 +28°C° 0 mm 1 mps 732 mmHg 76%
    23:00 +27°C° 0 mm 1 mps 732 mmHg 79%

    25 March, Monday

    Time Temperature Precipitation Wind Pressure Humidity
    00:00 +27°C° 0 mm 1 mps 732 mmHg 81%
    01:00 +26°C° 0 mm 1 mps 732 mmHg 84%
    02:00 +26°C° 0.3 mm 1 mps 732 mmHg 88%
    03:00 +26°C° 0.3 mm 1 mps 732 mmHg 91%
    04:00 +25°C° 0.3 mm 1 mps 732 mmHg 95%
    05:00 +25°C° 0 mm 1 mps 733 mmHg 95%
    06:00 +26°C° 0 mm 1 mps 733 mmHg 94%
    07:00 +26°C° 0 mm 1 mps 734 mmHg 94%
    08:00 +27°C° 0.1 mm 1 mps 734 mmHg 86%
    09:00 +29°C° 0.1 mm 1 mps 734 mmHg 79%
    10:00 +30°C° 0.1 mm 1 mps 735 mmHg 72%
    11:00 +31°C° 0 mm 1 mps 734 mmHg 67%
    12:00 +32°C° 0 mm 1 mps 733 mmHg 62%
    13:00 +34°C° 0 mm 1 mps 732 mmHg 58%
    14:00 +34°C° 0.1 mm 1 mps 731 mmHg 57%
    15:00 +34°C° 0.1 mm 1 mps 731 mmHg 56%
    16:00 +35°C° 0.1 mm 1 mps 731 mmHg 55%
    17:00 +32°C° 3.6 mm 1 mps 731 mmHg 68%
    18:00 +29°C° 3.6 mm 1 mps 732 mmHg 81%
    19:00 +26°C° 3.6 mm 2 mps 732 mmHg 94%
    20:00 +26°C° 0.6 mm 1 mps 733 mmHg 94%
    21:00 +25°C° 0.6 mm 1 mps 733 mmHg 95%
    22:00 +25°C° 0.6 mm 1 mps 734 mmHg 96%
    23:00 +25°C° 0 mm 1 mps 733 mmHg 96%
    Show more